Location: Krakow
(50.0830°N, 19.9170°E)
Time: 06:57:30
(UTC+02:00)

A-11 Canister half - Pass Details

Date: 18 March 2026
Orbit: 1523 x 1684 km, 47.3° (Epoch: 18 April)

Event Time Altitude Azimuth Distance (km) Brightness Sun altitude
Rises 05:55:13 0° 171° (S) 4,906 11.8 0.4°
Reaches altitude 10° 06:01:00 10° 146° (SE) 3,898 11.7 1.3°
Maximum altitude 06:04:41 13° 123° (ESE) 3,669 12.2 1.9°
Drops below altitude 10° 06:08:20 10° 101° (E) 3,861 13.5 2.5°
Sets 06:13:56 0° 76° (ENE) 4,815 13.2 3.4°
